ASXGS EDDH-EDDH

Flight info

Callsign ASXGS
Flight time 0h 12m
Altitude 3000
Route HAM
Aircraft DA62/L-SDFGRY/C

Departure

Time 2026-05-06 13:03
Airport Hamburg Helmut Schmidt Airport (EDDH)

Arrival

Time 2026-05-06 13:15
Airport Hamburg Helmut Schmidt Airport (EDDH)
Time Latitude Longitude Altitude Speed Heading
2026-05-06 12:46 53.62646 9.98880 41 ft 0 kts 244°
2026-05-06 12:55 53.62650 9.98859 41 ft 9 kts 328°
2026-05-06 12:55 53.62713 9.98865 41 ft 9 kts 330°
2026-05-06 12:56 53.62769 9.98817 41 ft 9 kts 334°
2026-05-06 12:56 53.62788 9.98800 41 ft 1 kts 333°
2026-05-06 12:56 53.62781 9.98724 41 ft 13 kts 222°
2026-05-06 12:56 53.62717 9.98607 41 ft 14 kts 230°
2026-05-06 12:57 53.62668 9.98461 41 ft 13 kts 289°
2026-05-06 12:57 53.62710 9.98399 40 ft 4 kts 325°
2026-05-06 12:57 53.62713 9.98396 40 ft 0 kts 324°
2026-05-06 13:00 53.62715 9.98393 40 ft 4 kts 324°
2026-05-06 13:01 53.62803 9.98352 38 ft 13 kts 34°
2026-05-06 13:01 53.62827 9.98399 38 ft 0 kts 47°
2026-05-06 13:02 53.62837 9.98417 38 ft 14 kts 50°
2026-05-06 13:02 53.63042 9.98831 40 ft 72 kts 51°
2026-05-06 13:02 53.63433 9.99601 167 ft 93 kts 50°
2026-05-06 13:03 53.63861 10.00436 434 ft 101 kts 51°
2026-05-06 13:03 53.64251 10.01449 757 ft 107 kts 70°
2026-05-06 13:03 53.64087 10.02754 969 ft 130 kts 120°
2026-05-06 13:03 53.63244 10.03595 1084 ft 151 kts 153°
2026-05-06 13:04 53.62179 10.03567 1237 ft 166 kts 198°
2026-05-06 13:04 53.61237 10.02424 1369 ft 172 kts 233°
2026-05-06 13:04 53.60698 10.00598 1319 ft 172 kts 245°
2026-05-06 13:04 53.60234 9.98904 1231 ft 145 kts 245°
2026-05-06 13:05 53.59782 9.97523 967 ft 128 kts 243°
2026-05-06 13:05 53.59392 9.96238 859 ft 121 kts 254°
2026-05-06 13:05 53.59481 9.94870 770 ft 116 kts 312°
2026-05-06 13:05 53.60062 9.94267 622 ft 94 kts
2026-05-06 13:06 53.60668 9.94471 431 ft 84 kts 32°
2026-05-06 13:06 53.61127 9.95045 338 ft 86 kts 41°
2026-05-06 13:06 53.61549 9.95779 201 ft 87 kts 45°
2026-05-06 13:06 53.61960 9.96619 90 ft 95 kts 53°
2026-05-06 13:07 53.62297 9.97325 34 ft 71 kts 50°
2026-05-06 13:07 53.62683 9.98103 120 ft 94 kts 52°
2026-05-06 13:07 53.63114 9.98984 357 ft 100 kts 49°
2026-05-06 13:07 53.63586 9.99930 528 ft 109 kts 49°
2026-05-06 13:08 53.63863 10.01017 808 ft 117 kts 101°
2026-05-06 13:08 53.63153 10.01895 892 ft 139 kts 153°
2026-05-06 13:08 53.62147 10.02103 863 ft 161 kts 198°
2026-05-06 13:08 53.61439 10.00722 823 ft 160 kts 246°
2026-05-06 13:09 53.60974 9.99167 707 ft 127 kts 244°
2026-05-06 13:09 53.60632 9.97955 511 ft 104 kts 244°
2026-05-06 13:09 53.60335 9.96780 402 ft 120 kts 250°
2026-05-06 13:09 53.60016 9.95347 494 ft 143 kts 264°
2026-05-06 13:10 53.60307 9.94100 504 ft 115 kts 339°
2026-05-06 13:10 53.60971 9.94419 470 ft 102 kts 51°
2026-05-06 13:10 53.61344 9.95334 317 ft 90 kts 53°
2026-05-06 13:10 53.61722 9.96139 181 ft 88 kts 52°
2026-05-06 13:11 53.62111 9.96946 70 ft 89 kts 53°
2026-05-06 13:11 53.62483 9.97701 53 ft 81 kts 51°
2026-05-06 13:11 53.62866 9.98464 145 ft 93 kts 51°
2026-05-06 13:11 53.63307 9.99336 359 ft 103 kts 51°
2026-05-06 13:12 53.63778 10.00306 612 ft 107 kts 52°
2026-05-06 13:12 53.64228 10.01354 849 ft 115 kts 66°
2026-05-06 13:12 53.63912 10.02595 927 ft 136 kts 135°
2026-05-06 13:12 53.63056 10.03358 1044 ft 146 kts 161°
2026-05-06 13:13 53.62111 10.02769 1169 ft 160 kts 230°
2026-05-06 13:13 53.61496 10.01152 1161 ft 173 kts 239°
2026-05-06 13:13 53.60894 9.99383 1248 ft 181 kts 241°
2026-05-06 13:13 53.60338 9.97728 1009 ft 142 kts 245°
2026-05-06 13:14 53.60127 9.96302 930 ft 117 kts 278°
2026-05-06 13:14 53.60458 9.95209 805 ft 101 kts 336°
2026-05-06 13:14 53.61066 9.95050 548 ft 82 kts 24°
2026-05-06 13:14 53.61480 9.95620 285 ft 75 kts 51°
2026-05-06 13:15 53.61854 9.96409 152 ft 91 kts 53°
2026-05-06 13:15 53.62244 9.97219 36 ft 80 kts 52°
2026-05-06 13:15 53.62536 9.97807 35 ft 50 kts 52°
2026-05-06 13:15 53.62702 9.98144 37 ft 28 kts 50°
2026-05-06 13:16 53.62757 9.98342 38 ft 14 kts 129°
2026-05-06 13:16 53.62695 9.98429 41 ft 10 kts 142°
2026-05-06 13:16 53.62674 9.98504 41 ft 6 kts 73°
2026-05-06 13:16 53.62713 9.98599 41 ft 11 kts 51°
2026-05-06 13:17 53.62750 9.98678 41 ft 8 kts 65°
2026-05-06 13:17 53.62718 9.98736 41 ft 14 kts 129°
2026-05-06 13:17 53.62719 9.98789 41 ft 5 kts 57°
2026-05-06 13:17 53.62726 9.98809 41 ft 0 kts 60°